Terminal Aerodrome Forecast
Issued by NWS Omaha/Valley, NE

Home | Current Version | Previous Version | Graphics & Text | Print | Product List | Glossary On
Versions: 1 2 3 4 5 6 7 8 9 10 11 12 13 14 15 16 17 18 19 20 21 22 23 24 25 26 27 28 29 30 31 32 33 34 35 36
000
FTUS43 KOAX 280338 AAA
TAFOFK
TAF AMD
KOFK 280338Z 2804/2824 14014KT P6SM SCT150
      TEMPO 2804/2805 OVC015
     FM280500 14010KT P6SM BKN150
      TEMPO 2810/2814 6SM -SHRA SCT040 BKN080
     FM281400 31014G22KT P6SM SCT150=

USA.gov is the U.S. government's official web portal to all federal, state and local government web resources and services.